Nassau, Bahamas

5:41 AM EDT on May 24, 2017 (GMT -0400)
Nassau International

Weather History for MYNN - July, 2013

Change the Weather History Date:

Tuesday, July 30, 2013

  Actual Average Record
Temperature  
Mean Temperature 86 °F -  
Max Temperature 91 °F 89 °F 95 °F (2005)
Min Temperature 81 °F 75 °F 75 °F (1998)
Cooling Degree Days 21    
Growing Degree Days 36 (Base 50)    
Moisture  
Dew Point 76 °F    
Average Humidity 72    
Maximum Humidity 84    
Minimum Humidity 57    
Precipitation  
Precipitation 0.00 in 0.28 in - ()
Sea Level Pressure  
Sea Level Pressure 30.12 in    
Wind  
Wind Speed 6 mph ()    
Max Wind Speed 12 mph    
Max Gust Speed -    
Visibility 6.7 miles    
Events      
Averages and records for this station are not official NWS values.
T = Trace of Precipitation, MM = Missing Value Source: Averaged Metar Reports

Daily Weather History Graph

Daily Weather History Graph

Search for Another Location

Airport or City:

Trip Planner

Search our weather history database for the weather conditions in past years. The results will help you decide how hot, cold, wet, or windy it might be!

Date:

Astronomy

Jul. 30, 2013 Rise Set
Actual Time 6:36 AM EDT 7:55 PM EDT
Civil Twilight 6:11 AM EDT 8:20 PM EDT
Nautical Twilight 5:42 AM EDT 8:49 PM EDT
Astronomical Twilight 5:12 AM EDT 9:19 PM EDT
Moon 12:48 AM EDT (7/30) 2:15 PM EDT (7/30)
Length of Visible Light 14h 08m
Length of Day
13h 19m
Last Quarter, 41% of the Moon is Illuminated
Jul 30
Last Quarter
Aug 6
New
Aug 14
First Quarter
Aug 20
Full
Aug 28
Last Quarter

Hourly Weather History & Observations

Time (EDT) Temp. Heat Index Dew Point Humidity Pressure Visibility Wind Dir Wind Speed Gust Speed Precip Events Conditions
12:00 AM 82.4 °F 89.5 °F 75.2 °F 79% 30.16 in 6.2 mi ENE 3.5 mph - N/A   Scattered Clouds
1:00 AM 82.4 °F 89.5 °F 75.2 °F 79% 30.15 in 6.2 mi ESE 5.8 mph - N/A   Scattered Clouds
2:00 AM 84.2 °F 94.1 °F 77.0 °F 79% 30.12 in 6.2 mi East 5.8 mph - N/A   Scattered Clouds
4:00 AM 82.4 °F 89.5 °F 75.2 °F 79% 30.10 in 6.2 mi ESE 3.5 mph - N/A   Scattered Clouds
5:00 AM 82 °F - 77 °F 81% 30.10 in 8 mi East 5.8 mph - -   Partly Cloudy
5:00 AM 82.4 °F 90.9 °F 77.0 °F 84% 30.09 in 6.2 mi East 5.8 mph - N/A   Scattered Clouds
6:00 AM 82.4 °F 89.5 °F 75.2 °F 79% 30.08 in 6.2 mi East 3.5 mph - N/A   Scattered Clouds
8:00 AM 84 °F - 79 °F 80% 30.12 in 9 mi NE 5.8 mph - -   Partly Cloudy
8:00 AM 84.2 °F 96.1 °F 78.8 °F 84% 30.11 in 6.2 mi NE 5.8 mph - N/A   Mostly Cloudy
9:00 AM 84.2 °F 92.3 °F 75.2 °F 74% 30.13 in 6.2 mi East 9.2 mph - N/A   Mostly Cloudy
10:00 AM 86.0 °F 95.1 °F 75.2 °F 70% 30.14 in 6.2 mi East 8.1 mph - N/A   Mostly Cloudy
11:00 AM 87.8 °F 97.6 °F 75.2 °F 66% 30.15 in 6.2 mi ENE 9.2 mph - N/A   Mostly Cloudy
12:00 PM 87.8 °F 97.6 °F 75.2 °F 66% 30.15 in 6.2 mi East 9.2 mph - N/A   Mostly Cloudy
1:00 PM 87.8 °F 95.6 °F 73.4 °F 62% 30.13 in 6.2 mi East 10.4 mph - N/A   Mostly Cloudy
2:00 PM 87.8 °F 99.7 °F 77.0 °F 70% 30.12 in 6.2 mi NNE 10.4 mph - N/A   Mostly Cloudy
3:00 PM 87.8 °F 97.6 °F 75.2 °F 66% 30.12 in 6.2 mi ENE 9.2 mph - N/A   Mostly Cloudy
4:00 PM 87.8 °F 97.6 °F 75.2 °F 66% 30.10 in 6.2 mi ESE 11.5 mph - N/A   Mostly Cloudy
5:00 PM 88 °F - 75 °F 57% 30.09 in 9 mi East 8.1 mph - -   Partly Cloudy
5:00 PM 87.8 °F 97.6 °F 75.2 °F 66% 30.09 in 6.2 mi East 8.1 mph - N/A   Mostly Cloudy
7:00 PM 86.0 °F 95.1 °F 75.2 °F 70% 30.09 in 6.2 mi ENE 6.9 mph - N/A   Mostly Cloudy
8:00 PM 86 °F - 76 °F 65% 30.10 in 9 mi East 8.1 mph - -   Partly Cloudy
8:00 PM 86.0 °F 95.1 °F 75.2 °F 70% 30.10 in 6.2 mi East 8.1 mph - N/A   Mostly Cloudy
9:00 PM 84.2 °F 92.3 °F 75.2 °F 74% 30.12 in 6.2 mi East 8.1 mph - N/A   Mostly Cloudy
10:00 PM 84.2 °F 92.3 °F 75.2 °F 74% 30.13 in 6.2 mi ENE 4.6 mph - N/A   Mostly Cloudy
11:00 PM 84 °F - 74 °F 64% 30.13 in 9 mi East 6.9 mph - -   Scattered Clouds
11:00 PM 84.2 °F 90.9 °F 73.4 °F 70% 30.13 in 6.2 mi East 6.9 mph - N/A   Mostly Cloudy